{"data":{"norad_id":49145,"intl_designator":"2021-082R","name":"STARLINK-3119","alt_names":[],"object_type":"PAYLOAD","status":"ACTIVE","operator":null,"country":"US","launch_date":"2021-09-14","launch_site_code":"AFWTR","launch_vehicle":null,"mission":null,"orbit_class":"UNKNOWN","rcs_meters":null,"size_class":null,"mass_kg":null,"dimensions":null,"purposes":["comms"],"wikipedia_slug":null,"has_3d_model":false,"image_url":null,"decayed_at":null,"tle_current":{"epoch":"2026-09-19T23:44:25.234080Z","epoch_age_seconds":85403,"freshness":"FRESH","line1":"1 49145U 21082R   26262.98918095  .00000122  00000+0  17976-4 0  9991","line2":"2 49145  69.9986 124.5421 0002726 269.3676  90.7171 14.98330792276069","mean_motion":14.98330792,"eccentricity":0.0002726,"inclination_deg":69.9986,"raan_deg":124.5421,"arg_perigee_deg":269.3676,"mean_anomaly_deg":90.7171,"bstar":1.7976e-5,"rev_number":27606,"period_min":96.106948324666,"perigee_km":570.15881983641,"apogee_km":573.94806366525,"semimajor_km":6950.1904417508,"source":"CELESTRAK","updated_at":"2026-09-20T09:00:39.248872Z"}}}